Weather History for KOEO - June, 2013

Change the Weather History Date:

Sunday, June 23, 2013

  Actual Average (KMSP) Record (KMSP)
Temperature  
Mean Temperature 74 °F 71 °F  
Max Temperature 82 °F 81 °F 99 °F (1937)
Min Temperature 66 °F 61 °F 44 °F (1972)
Degree Days  
Heating Degree Days 0 1  
Month to date heating degree days 42  
Since 1 June heating degree days 42  
Since 1 July heating degree days 7578  
Cooling Degree Days 9 7  
Month to date cooling degree days 105  
Year to date cooling degree days 147  
Since 1 June cooling degree days 105  
Growing Degree Days 24 (Base 50)    
Moisture  
Dew Point 66 °F    
Average Humidity 78    
Maximum Humidity 93    
Minimum Humidity 53    
Precipitation  
Precipitation 0.29 in 0.15 in 2.52 in (1873)
Month to date precipitation 3.23  
Year to date precipitation 12.81  
Snow  
Snow 0.00 in 0.00 in 0.00 in ()
Month to date snowfall 0.0  
Since 1 June snowfall 0.0  
Since 1 July snowfall 54.4  
Snow Depth -    
Sea Level Pressure  
Sea Level Pressure 29.82 in    
Wind  
Wind Speed 10 mph (South)    
Max Wind Speed 21 mph    
Max Gust Speed 29 mph    
Visibility 10 miles    
Events Rain    
T = Trace of Precipitation, MM = Missing Value Source: NWS Daily Summary

Daily Weather History Graph

Daily Weather History Graph

Search for Another Location

Airport or City:

Trip Planner

Search our weather history database for the weather conditions in past years. The results will help you decide how hot, cold, wet, or windy it might be!

Date:

Astronomy

Jun. 23, 2013 Rise Set
Actual Time 5:23 AM CDT 9:02 PM CDT
Civil Twilight 4:45 AM CDT 9:40 PM CDT
Nautical Twilight 3:55 AM CDT 10:30 PM CDT
Astronomical Twilight 2:47 AM CDT 11:38 PM CDT
Moon 9:10 PM CDT (6/23) 5:44 AM CDT (6/23)
Length of Visible Light 16h 54m
Length of Day
15h 39m
Full, 100% of the Moon is Illuminated
Jun 23
Full
Jun 29
Last Quarter
Jul 8
New
Jul 15
First Quarter
Jul 22
Full

Hourly Weather History & Observations

Time (CDT) Temp. Heat Index Dew Point Humidity Pressure Visibility Wind Dir Wind Speed Gust Speed Precip Events Conditions
12:15 AM 70.7 °F - 68.4 °F 92% 29.89 in 10.0 mi ESE 4.6 mph - N/A   Mostly Cloudy
12:35 AM 71.1 °F - 68.7 °F 92% 29.87 in 10.0 mi East 5.8 mph - N/A   Mostly Cloudy
12:55 AM 71.2 °F - 68.9 °F 92% 29.87 in 10.0 mi ESE 8.1 mph - N/A   Mostly Cloudy
1:15 AM 71.1 °F - 68.9 °F 93% 29.85 in 10.0 mi ESE 8.1 mph - N/A   Scattered Clouds
1:35 AM 71.1 °F - 68.5 °F 92% 29.84 in 10.0 mi SE 9.2 mph - N/A   Clear
1:55 AM 71.1 °F - 68.0 °F 90% 29.85 in 10.0 mi SE 5.8 mph - N/A   Scattered Clouds
2:15 AM 70.9 °F - 67.1 °F 88% 29.85 in 10.0 mi SE 11.5 mph 17.3 mph N/A   Overcast
2:35 AM 70.3 °F - 66.9 °F 89% 29.85 in 10.0 mi SE 6.9 mph - N/A   Scattered Clouds
2:55 AM 70.3 °F - 66.9 °F 89% 29.85 in 10.0 mi SSE 9.2 mph 19.6 mph N/A   Mostly Cloudy
3:15 AM 70.2 °F - 66.9 °F 89% 29.84 in 10.0 mi SSE 15.0 mph 18.4 mph N/A   Overcast
3:35 AM 70.0 °F - 66.9 °F 90% 29.82 in 10.0 mi SE 9.2 mph 17.3 mph N/A   Mostly Cloudy
3:55 AM 70.3 °F - 67.1 °F 89% 29.81 in 10.0 mi SE 8.1 mph - N/A   Mostly Cloudy
4:15 AM 70.7 °F - 67.1 °F 88% 29.80 in 10.0 mi SE 9.2 mph - N/A   Overcast
4:35 AM 71.1 °F - 66.4 °F 85% 29.80 in 10.0 mi SSE 12.7 mph 18.4 mph N/A   Scattered Clouds
4:55 AM 71.1 °F - 66.2 °F 85% 29.79 in 10.0 mi SSE 10.4 mph 19.6 mph N/A   Clear
5:15 AM 70.7 °F - 66.4 °F 86% 29.79 in 10.0 mi SSE 6.9 mph - N/A   Clear
5:35 AM 71.2 °F - 66.4 °F 85% 29.79 in 10.0 mi SSE 11.5 mph - N/A   Scattered Clouds
5:55 AM 72.7 °F - 66.2 °F 80% 29.79 in 10.0 mi South 19.6 mph 23.0 mph N/A   Mostly Cloudy
6:15 AM 73.4 °F - 66.0 °F 78% 29.81 in 10.0 mi South 16.1 mph 21.9 mph N/A   Overcast
6:35 AM 74.1 °F - 65.5 °F 74% 29.85 in 10.0 mi SSW 15.0 mph 23.0 mph N/A   Overcast
6:55 AM 69.8 °F - 66.6 °F 89% 29.84 in 5.0 mi South 20.7 mph 27.6 mph 0.18 in Rain Rain
7:15 AM 69.8 °F - 66.9 °F 91% 29.83 in 10.0 mi South 13.8 mph 20.7 mph 0.01 in Rain Rain
7:35 AM 68.9 °F - 66.9 °F 93% 29.80 in 10.0 mi SE 12.7 mph - 0.05 in Rain Rain
7:55 AM 68.9 °F - 66.7 °F 93% 29.80 in 10.0 mi SSE 10.4 mph - 0.07 in Rain Light Rain
8:15 AM 68.9 °F - 66.9 °F 93% 29.81 in 10.0 mi SSE 9.2 mph - 0.02 in Rain Light Rain
8:35 AM 68.9 °F - 66.6 °F 92% 29.77 in 10.0 mi SE 12.7 mph 17.3 mph 0.03 in Rain Light Rain
8:55 AM 68.9 °F - 66.6 °F 92% 29.76 in 10.0 mi SSE 16.1 mph 20.7 mph 0.04 in Rain Light Rain
9:15 AM 69.8 °F - 67.1 °F 91% 29.75 in 10.0 mi SSE 15.0 mph 24.2 mph N/A   Scattered Clouds
9:35 AM 70.7 °F - 67.1 °F 88% 29.73 in 10.0 mi SSE 16.1 mph 24.2 mph N/A   Clear
9:55 AM 71.1 °F - 66.6 °F 86% 29.72 in 10.0 mi SSE 19.6 mph 26.5 mph N/A   Clear
10:15 AM 71.6 °F - 67.6 °F 87% 29.74 in 10.0 mi South 19.6 mph 25.3 mph N/A   Scattered Clouds
10:35 AM 73.2 °F - 68.4 °F 85% 29.74 in 10.0 mi South 19.6 mph 28.8 mph N/A   Scattered Clouds
10:55 AM 73.4 °F - 68.9 °F 86% 29.76 in 10.0 mi SSW 13.8 mph - N/A   Mostly Cloudy
11:15 AM 73.9 °F - 69.3 °F 85% 29.77 in 10.0 mi SSW 11.5 mph 19.6 mph N/A   Overcast
11:35 AM 74.5 °F - 69.1 °F 83% 29.77 in 10.0 mi SSW 13.8 mph 17.3 mph N/A   Overcast
11:55 AM 75.7 °F - 68.9 °F 79% 29.78 in 10.0 mi SSW 16.1 mph 23.0 mph N/A   Scattered Clouds
12:15 PM 76.3 °F - 68.5 °F 77% 29.79 in 10.0 mi SW 19.6 mph 25.3 mph N/A   Scattered Clouds
12:35 PM 77.0 °F - 67.3 °F 72% 29.81 in 10.0 mi SW 19.6 mph 26.5 mph N/A   Mostly Cloudy
12:55 PM 77.0 °F - 67.1 °F 71% 29.82 in 10.0 mi SW 20.7 mph 27.6 mph N/A   Mostly Cloudy
1:15 PM 77.9 °F - 67.1 °F 69% 29.81 in 10.0 mi SW 17.3 mph - N/A   Scattered Clouds
1:35 PM 78.8 °F - 66.4 °F 66% 29.81 in 10.0 mi SW 19.6 mph - N/A   Scattered Clouds
1:55 PM 79.2 °F - 66.2 °F 64% 29.81 in 10.0 mi SW 13.8 mph 20.7 mph N/A   Scattered Clouds
2:15 PM 79.9 °F - 66.9 °F 64% 29.81 in 10.0 mi SSW 11.5 mph - N/A   Scattered Clouds
2:35 PM 79.7 °F - 65.7 °F 62% 29.82 in 10.0 mi SW 17.3 mph - N/A   Scattered Clouds
2:55 PM 80.4 °F 82.7 °F 66.9 °F 63% 29.82 in 10.0 mi SW 17.3 mph 21.9 mph N/A   Clear
3:15 PM 80.6 °F 82.9 °F 67.1 °F 63% 29.81 in 10.0 mi SW 12.7 mph - N/A   Scattered Clouds
3:35 PM 81.3 °F 83.3 °F 65.8 °F 59% 29.82 in 10.0 mi SW 16.1 mph 19.6 mph N/A   Scattered Clouds
3:55 PM 81.5 °F 83.4 °F 65.5 °F 58% 29.82 in 10.0 mi SW 15.0 mph - N/A   Scattered Clouds
4:15 PM 81.5 °F 83.6 °F 65.8 °F 59% 29.82 in 10.0 mi SW 12.7 mph 18.4 mph N/A   Scattered Clouds
4:35 PM 80.8 °F 82.8 °F 65.8 °F 60% 29.82 in 10.0 mi WSW 12.7 mph - N/A   Scattered Clouds
4:55 PM 81.9 °F 83.9 °F 65.7 °F 58% 29.81 in 10.0 mi WSW 13.8 mph - N/A   Clear
5:15 PM 82.2 °F 83.8 °F 64.4 °F 55% 29.81 in 10.0 mi WSW 11.5 mph 19.6 mph N/A   Clear
5:35 PM 81.1 °F 82.5 °F 63.7 °F 55% 29.82 in 10.0 mi SW 13.8 mph 18.4 mph N/A   Mostly Cloudy
5:55 PM 82.0 °F 83.3 °F 63.5 °F 53% 29.83 in 10.0 mi WSW 17.3 mph - N/A   Mostly Cloudy
6:15 PM 82.0 °F 83.3 °F 63.5 °F 53% 29.83 in 10.0 mi WSW 13.8 mph 20.7 mph N/A   Scattered Clouds
6:35 PM 81.5 °F 82.8 °F 63.5 °F 54% 29.84 in 10.0 mi WSW 11.5 mph - N/A   Clear
6:55 PM 81.1 °F 82.7 °F 64.2 °F 56% 29.84 in 10.0 mi WSW 10.4 mph - N/A   Clear
7:15 PM 80.4 °F 82.1 °F 64.4 °F 58% 29.84 in 10.0 mi WSW 9.2 mph - N/A   Clear
7:35 PM 80.2 °F 82.0 °F 64.9 °F 59% 29.85 in 10.0 mi SW 9.2 mph - N/A   Scattered Clouds
7:55 PM 79.0 °F - 65.3 °F 63% 29.85 in 10.0 mi WSW 6.9 mph - N/A   Scattered Clouds
8:15 PM 77.4 °F - 65.5 °F 67% 29.85 in 10.0 mi West 5.8 mph - N/A   Clear
8:35 PM 76.1 °F - 64.9 °F 68% 29.86 in 10.0 mi WSW 5.8 mph - N/A   Clear
8:55 PM 74.3 °F - 65.3 °F 73% 29.87 in 10.0 mi SW 5.8 mph - N/A   Clear
9:15 PM 74.3 °F - 64.6 °F 72% 29.87 in 10.0 mi SSW 3.5 mph - N/A   Clear
9:35 PM 72.3 °F - 64.8 °F 77% 29.88 in 10.0 mi SSW 3.5 mph - N/A   Clear
9:55 PM 70.7 °F - 65.1 °F 82% 29.89 in 10.0 mi South 3.5 mph - N/A   Clear
10:15 PM 69.3 °F - 64.9 °F 86% 29.90 in 10.0 mi Calm Calm - N/A   Clear
10:35 PM 68.4 °F - 64.8 °F 88% 29.90 in 10.0 mi Calm Calm - N/A   Clear
10:55 PM 68.5 °F - 64.9 °F 88% 29.91 in 10.0 mi Calm Calm - N/A   Clear
11:15 PM 67.3 °F - 64.8 °F 92% 29.91 in 10.0 mi Calm Calm - N/A   Clear
11:35 PM 66.9 °F - 64.6 °F 92% 29.91 in 10.0 mi Calm Calm - N/A   Clear
11:55 PM 66.9 °F - 63.9 °F 90% 29.91 in 10.0 mi Calm Calm - N/A   Clear